sat.trackr.live / text

‹ back to catalog

STARLINK-31863

NORAD 59789 · 2024-093H

PAYLOAD ACTIVE UNKNOWN

§ Identity

Operator
Country
US
Launch date
2024-05-18
Launch site
AFETR
Launch vehicle
Mass (kg)
RCS (m²)

Purposes: comms

External: N2YO · Heavens-Above · Gunter

§ Orbital elements

Epoch: 2026-05-25T00:40:14.742624Z

Period
94.27 min
Inclination
43.0027°
Eccentricity
0.0001395
Mean motion
15.27575671 rev/d
Perigee alt
482.1 km
Apogee alt
484.0 km
Semi-major
6,861.2 km
B*
-2.2487e-5
RAAN
137.5015°
Arg perigee
273.8877°
Mean anomaly
86.1815°
Rev number
11,437

§ Raw data

STARLINK-318631 59789U 24093H   26145.02794841 -.00000881  00000+0 -22487-4 0  99942 59789  43.0027 137.5015 0001395 273.8877  86.1815 15.27575671114379

JSON: /api/v1/satellites/59789 · /tle

For live sub-satellite position, see the globe view (requires WebGL).

§ Visibility from observer

Set your observer location to see the next 7 days of passes ≥ 10°. The values pass through the URL so the page stays shareable.

No JS? Fill the form by hand. The geolocation button needs JavaScript.